Tracking 23582 objects as of 31-Jul-2021
HD Live streaming from Space Station
objects crossing your sky now

ONEWEB-0283

Track ONEWEB-0283 now!
10-day predictions
ONEWEB-0283 is classified as:


NORAD ID: 49001
Int'l Code: 2021-061AL
Perigee: 567.1 km
Apogee: 585.2 km
Inclination: 87.5 °
Period: 96.0 minutes
Semi major axis: 6947 km
RCS: Unknown
Launch date: July 1, 2021
Source: United Kingdom (UK)
Launch site: VOSTOCHNY COSMODROME (VOSTO)
aabbcc
Your satellite tracking list
Your tracking list is empty




NASA's NSSDC Master Catalog

Two Line Element Set (TLE):
1 49001U 21060AL  21211.91667824 -.01370569  00000-0 -12209+0 0  9999
2 49001  87.4723 227.1702 0012985 141.3455 201.0456 14.99316021  3643
Source of the keplerian elements: AFSPC